Hourly Data Report for October 16, 2016

All times are specified in Local Standard Time (LST). Add 1 hour to adjust for Daylight Saving Time where and when it is observed.

FREDERICTON
NEW BRUNSWICK

45°52'08.000" N
66°32'14.000" W
20.70 m
8101505
71700
YFC

Download Data

Hourly Data (October 2016)
Hourly Data Report for October 16, 2016
Temp Definition
°C
Dew Point Temp Definition
°C
Rel Hum Definition
%
Wind Dir Definition
10's deg

Wind Spd Definition
km/h
Visibility Definition
km
Stn Press Definition
kPa
Hmdx Definition


Wind Chill Definition


Weather Definition


TIME
00:00 Legend Double Dagger 2.7 0.6 86 21 9 16.1 102.31     LegendNANA
01:00 Legend Double Dagger 2.6 0.7 87 20 8 16.1 102.21     LegendNANA
02:00 Legend Double Dagger 0.9 -0.3 92 20 11 16.1 102.15     LegendNANA
03:00 Legend Double Dagger 0.5 -0.4 94 29 4 16.1 102.13     LegendNANA
04:00 Legend Double Dagger -0.7 -1.1 97 15 8 16.1 102.05   -4 LegendNANA
05:00 Legend Double Dagger -0.1 -0.4 98 24 5 16.1 102.03   -2 LegendNANA
06:00 Legend Double Dagger -1.1 -1.4 98   0 16.1 101.96     LegendNANA
07:00 Legend Double Dagger -1.4 -1.8 97   0 16.1 101.87     LegendNANA
08:00 Legend Double Dagger 0.8 0.4 97 20 9 16.1 101.82     LegendNANA
09:00 Legend Double Dagger 5.2 2.2 81 19 11 16.1 101.74     LegendNANA
10:00 Legend Double Dagger 7.8 3.7 75 16 9 16.1 101.64     LegendNANA
11:00 Legend Double Dagger 11.8 6.9 72 20 34 16.1 101.51     LegendNANA
12:00 Legend Double Dagger 14.6 7.5 62 18 28 16.1 101.35     LegendNANA
13:00 Legend Double Dagger 15.4 8.1 62 23 28 16.1 101.30     LegendNANA
14:00 Legend Double Dagger 15.9 8.8 62 19 24 16.1 101.12     LegendNANA
15:00 Legend Double Dagger 15.7 9.4 66 18 28 16.1 100.99     LegendNANA
16:00 Legend Double Dagger 14.9 9.5 70 20 28 16.1 100.93     LegendNANA
17:00 Legend Double Dagger 13.9 10.0 77 20 22 16.1 100.88     LegendNANA
18:00 Legend Double Dagger 13.5 10.3 81 21 18 16.1 100.85     LegendNANA
19:00 Legend Double Dagger 13.3 10.5 83 20 18 16.1 100.78     LegendNANA
20:00 Legend Double Dagger 13.0 10.6 85 20 17 16.1 100.70     LegendNANA
21:00 Legend Double Dagger 13.0 10.7 86 20 13 16.1 100.64     LegendNANA
22:00 Legend Double Dagger 12.2 11.3 94 20 11 9.7 100.61     Moderate Rain,Fog
23:00 Legend Double Dagger 11.9 11.3 96 19 8 16.1 100.56     Rain

Notes on Data Quality.

Legend

  • E = Estimated
  • M = Missing
  • NA = Not Available
  • ‡ = Partner data that is not subject to review by the National Climate Archives
Date modified: